Terminal Aerodrome Forecast
Issued by NWS Knoxville/Tri Cities, TN

Home | Current Version | Previous Version | Text Only | Print | Product List | Glossary On
Versions: 1 2 3 4 5 6 7 8 9 10 11 12
000
FTUS44 KMRX 202320
TAFCHA
TAF
KCHA 202320Z 2100/2124 VRB04KT P6SM SCT150 BKN250
     FM211400 22006KT P6SM SCT150 BKN250=

USA.gov is the U.S. government's official web portal to all federal, state and local government web resources and services.